Mullan Pass, ID

8:31 PM PDT on May 20, 2018 (GMT -0700)
Mullan Pass

Weather History for KMLP - July, 2013

Change the Weather History Date:

Thursday, July 4, 2013

  Actual Average (K3TH) Record (K3TH)
Temperature  
Mean Temperature 61 °F -  
Max Temperature 69 °F 78 °F 99 °F (2001)
Min Temperature 54 °F 54 °F 45 °F (2000)
Degree Days  
Heating Degree Days 4    
Growing Degree Days 11 (Base 50)    
Moisture  
Dew Point 39 °F    
Average Humidity 45    
Maximum Humidity 62    
Minimum Humidity 34    
Precipitation  
Precipitation 0.00 in - - ()
Sea Level Pressure  
Sea Level Pressure 29.79 in    
Wind  
Wind Speed 5 mph (WNW)    
Max Wind Speed 10 mph    
Max Gust Speed 17 mph    
Visibility 10 miles    
Events      
Averages and records for this station are not official NWS values.
T = Trace of Precipitation, MM = Missing Value Source: NWS Daily Summary

Daily Weather History Graph

Daily Weather History Graph

Search for Another Location

Airport or City:

Astronomy

Jul. 04, 2013 Rise Set
Actual Time 4:51 AM PDT 8:42 PM PDT
Civil Twilight 4:12 AM PDT 9:21 PM PDT
Nautical Twilight 3:17 AM PDT 10:16 PM PDT
Astronomical Twilight 1:56 AM PDT 11:36 PM PDT
Moon 2:17 AM PDT (7/4) 5:45 PM PDT (7/4)
Length of Visible Light 17h 09m
Length of Day
15h 50m
Waning Crescent, 11% of the Moon is Illuminated
Jul 4
Waning Crescent
Jul 8
New
Jul 15
First Quarter
Jul 22
Full
Jul 29
Last Quarter

Hourly Weather History & Observations

Time (PDT) Temp. Dew Point Humidity Pressure Visibility Wind Dir Wind Speed Gust Speed Precip Events Conditions
12:53 AM 61.0 °F 41.0 °F 48% 29.84 in 10.0 mi WSW 8.1 mph - N/A   Clear
1:53 AM 60.1 °F 37.9 °F 44% 29.83 in - WSW 6.9 mph - N/A   Clear
2:53 AM 61.0 °F 33.1 °F 35% 29.82 in - Variable 4.6 mph 17.3 mph N/A   Clear
3:53 AM 57.9 °F 34.0 °F 41% 29.82 in - WNW 6.9 mph - N/A   Clear
4:53 AM 59.0 °F 32.0 °F 36% 29.80 in - Variable 4.6 mph - N/A   Clear
5:53 AM 57.0 °F 35.1 °F 44% 29.81 in - NW 3.5 mph - N/A   Clear
6:53 AM 59.0 °F 36.0 °F 42% 29.81 in - Calm Calm - N/A   Clear
7:53 AM 61.0 °F 41.0 °F 48% 29.81 in - Calm Calm - N/A   Clear
8:53 AM 63.0 °F 44.1 °F 50% 29.82 in - Variable 3.5 mph - N/A   Clear
9:53 AM 63.0 °F 39.9 °F 43% 29.81 in - Variable 4.6 mph - N/A   Clear
10:53 AM 64.9 °F 43.0 °F 45% 29.81 in - Variable 6.9 mph - N/A   Clear
11:53 AM 66.9 °F 45.0 °F 45% 29.80 in - Variable 6.9 mph - N/A   Clear
12:53 PM 68.0 °F 44.1 °F 42% 29.78 in - Variable 4.6 mph - N/A   Clear
1:53 PM 68.0 °F 42.1 °F 39% 29.78 in - Variable 4.6 mph - N/A   Clear
2:53 PM 66.9 °F 37.9 °F 34% 29.78 in - Variable 3.5 mph - N/A   Clear
3:53 PM 66.0 °F 39.0 °F 37% 29.78 in - Variable 6.9 mph 17.3 mph N/A   Clear
4:53 PM 64.9 °F 36.0 °F 34% 29.77 in - West 10.4 mph - N/A   Clear
5:53 PM 66.0 °F 39.9 °F 38% 29.75 in - Variable 4.6 mph - N/A   Clear
6:53 PM 63.0 °F 39.0 °F 41% 29.75 in - Variable 3.5 mph - N/A   Clear
7:53 PM 59.0 °F 42.1 °F 53% 29.76 in - Variable 3.5 mph - N/A   Clear
8:53 PM 55.0 °F 42.1 °F 62% 29.77 in - Variable 4.6 mph - N/A   Clear
9:53 PM 54.0 °F 41.0 °F 62% 29.77 in - NW 3.5 mph - N/A   Clear
10:53 PM 54.0 °F 39.9 °F 59% 29.75 in - NNW 4.6 mph - N/A   Clear
11:53 PM 54.0 °F 37.9 °F 55% 29.74 in - NW 5.8 mph - N/A   Clear